Location: Unspecified
(53.1842°N, 0.0000°E)
Time: 02:38:56
(UTC+00:00)

HYPSO-2 - Visible Passes

Search period start: 04 April 2026 00:00
Search period end: 14 April 2026 00:00
Orbit: 571 x 573 km, 97.7° (Epoch: 29 March)

Date Brightness Start Highest point End Pass type
(mag) Time Alt. Az. Time Alt. Az. Time Alt. Az.
4 Apr ? 21:32:34 54° NE 21:32:34 54° NE 21:36:20 10° N visible
4 Apr ? 23:08:44 18° WNW 23:08:44 18° WNW 23:10:48 10° NW visible
5 Apr ? 20:00:11 10° NE 20:00:22 10° NE 20:00:34 10° NE visible
5 Apr ? 21:34:53 57° ENE 21:34:53 57° ENE 21:38:44 10° N visible
5 Apr ? 23:11:02 17° WNW 23:11:02 17° WNW 23:13:06 10° NW visible
6 Apr ? 20:01:55 10° ENE 20:02:43 10° NE 20:03:31 10° NE visible
6 Apr ? 21:37:11 61° ENE 21:37:11 61° ENE 21:41:07 10° N visible
6 Apr ? 23:13:21 17° WNW 23:13:21 17° WNW 23:15:24 10° NW visible
7 Apr ? 20:03:57 10° ENE 20:05:03 11° NE 20:06:10 10° NE visible
7 Apr ? 21:39:29 65° ENE 21:39:29 65° ENE 21:43:30 10° N visible
7 Apr ? 23:15:38 16° WNW 23:15:38 16° WNW 23:17:41 10° NW visible
8 Apr ? 20:06:02 10° ENE 20:07:23 11° NE 20:08:43 10° NNE visible
8 Apr ? 21:41:46 68° ENE 21:41:47 68° ENE 21:45:52 10° N visible
8 Apr ? 23:17:56 15° W 23:17:56 15° W 23:19:56 10° NW visible
9 Apr ? 20:08:09 10° ENE 20:09:42 12° NE 20:11:14 10° NNE visible
9 Apr ? 21:44:04 72° E 21:44:08 72° ENE 21:48:13 10° N visible
9 Apr ? 23:20:13 15° W 23:20:13 15° W 23:22:12 10° NW visible
10 Apr ? 20:10:17 10° ENE 20:12:01 12° NE 20:13:43 10° NNE visible
10 Apr ? 21:46:20 75° E 21:46:29 76° ENE 21:50:34 10° NNW visible
10 Apr ? 23:22:29 14° W 23:22:29 14° W 23:24:25 10° NW visible
11 Apr ? 20:12:27 10° E 20:14:19 13° NE 20:16:11 10° NNE visible
11 Apr ? 21:48:36 76° ESE 21:48:49 80° ENE 21:52:55 10° NNW visible
11 Apr ? 23:24:45 14° W 23:24:45 14° W 23:26:38 10° NW visible
12 Apr ? 20:14:43 10° E 20:16:37 13° NE 20:18:38 10° NNE visible
12 Apr ? 21:50:52 76° SE 21:51:08 84° ENE 21:55:15 10° NNW visible
12 Apr ? 23:27:01 13° W 23:27:01 13° W 23:28:49 10° WNW visible
13 Apr ? 20:16:58 11° E 20:18:54 14° NE 20:21:03 10° NNE visible
13 Apr ? 21:53:07 75° SSE 21:53:27 88° ENE 21:57:34 10° NNW visible
13 Apr ? 23:29:16 12° W 23:29:16 12° W 23:30:58 10° WNW visible
